Noatak, AK

3:42 AM AKDT on April 29, 2017 (GMT -0800)
Noatak

Weather History for PAWN - March, 2013

Change the Weather History Date:

Friday, March 22, 2013

  Actual Average Record
Temperature  
Mean Temperature -6 °F -  
Max Temperature 3 °F 11 °F 30 °F (2002)
Min Temperature -16 °F -1 °F -29 °F (2003)
Degree Days  
Heating Degree Days 72    
Moisture  
Dew Point -22 °F    
Average Humidity 46    
Maximum Humidity 65    
Minimum Humidity 36    
Precipitation  
Precipitation 0.00 in - - ()
Sea Level Pressure  
Sea Level Pressure 30.03 in    
Wind  
Wind Speed 12 mph (North)    
Max Wind Speed 21 mph    
Max Gust Speed 26 mph    
Visibility 10 miles    
Events      
Averages and records for this station are not official NWS values.
T = Trace of Precipitation, MM = Missing Value Source: NWS Daily Summary

Daily Weather History Graph

Daily Weather History Graph

Search for Another Location

Airport or City:

Trip Planner

Search our weather history database for the weather conditions in past years. The results will help you decide how hot, cold, wet, or windy it might be!

Date:

Astronomy

Mar. 22, 2013 Rise Set
Actual Time 8:41 AM AKDT 9:17 PM AKDT
Civil Twilight 7:46 AM AKDT 10:13 PM AKDT
Nautical Twilight 6:36 AM AKDT 11:23 PM AKDT
Astronomical Twilight 5:08 AM AKDT 12:54 AM AKDT
Moon 3:09 PM AKDT (3/22) 7:43 AM AKDT (3/22)
Length of Visible Light 14h 27m
Length of Day
12h 36m
Waxing Gibbous, 78% of the Moon is Illuminated
Mar 22
Waxing Gibbous
Mar 27
Full
Apr 2
Last Quarter
Apr 10
New
Apr 18
First Quarter

Hourly Weather History & Observations

Time (AKDT) Temp. Windchill Dew Point Humidity Pressure Visibility Wind Dir Wind Speed Gust Speed Precip Events Conditions
12:16 AM -14.8 °F -34.6 °F -29.2 °F 48% 30.11 in 10.0 mi North 10.4 mph - N/A   Clear
12:36 AM -16.6 °F -32.9 °F -27.4 °F 58% 30.12 in 10.0 mi North 6.9 mph - N/A   Clear
12:56 AM -13.0 °F -32.4 °F -23.8 °F 59% 30.11 in 10.0 mi North 10.4 mph - N/A   Clear
1:16 AM -14.8 °F -34.6 °F -27.4 °F 53% 30.11 in 10.0 mi North 10.4 mph - N/A   Scattered Clouds
1:36 AM -13.0 °F -34.3 °F -23.8 °F 59% 30.11 in 10.0 mi North 12.7 mph - N/A   Mostly Cloudy
1:56 AM - - - N/A% 30.10 in 10.0 mi North 12.7 mph - N/A   Mostly Cloudy
2:16 AM -14.8 °F -35.6 °F -27.4 °F 53% 30.11 in 10.0 mi North 11.5 mph - N/A   Scattered Clouds
2:36 AM -14.8 °F -34.6 °F -29.2 °F 48% 30.10 in 10.0 mi North 10.4 mph - N/A   Clear
2:56 AM -13.0 °F -33.4 °F -25.6 °F 53% 30.10 in 10.0 mi North 11.5 mph - N/A   Mostly Cloudy
3:16 AM -11.2 °F -32.1 °F -25.6 °F 49% 30.10 in 10.0 mi North 12.7 mph - N/A   Overcast
3:36 AM -11.2 °F -32.1 °F -25.6 °F 49% 30.10 in 10.0 mi North 12.7 mph - N/A   Mostly Cloudy
3:56 AM -9.4 °F -30.6 °F -25.6 °F 45% 30.10 in 10.0 mi North 13.8 mph - N/A   Partly Cloudy
4:16 AM -9.4 °F -30.6 °F -25.6 °F 45% 30.10 in 10.0 mi North 13.8 mph - N/A   Clear
4:36 AM -9.4 °F -27.9 °F -25.6 °F 45% 30.11 in 10.0 mi North 10.4 mph 19.6 mph N/A   Clear
4:56 AM -14.8 °F -34.6 °F - N/A% 30.11 in 10.0 mi North 10.4 mph - N/A   Clear
5:16 AM -11.2 °F -27.8 °F -27.4 °F 45% 30.11 in 10.0 mi North 8.1 mph - N/A   Clear
5:36 AM -13.0 °F -27.0 °F -29.2 °F 44% 30.10 in 10.0 mi North 5.8 mph - N/A   Clear
5:56 AM -11.2 °F -30.1 °F -29.2 °F 41% 30.10 in 10.0 mi North 10.4 mph - N/A   Clear
6:16 AM -11.2 °F -31.1 °F -23.8 °F 54% 30.09 in 10.0 mi North 11.5 mph - N/A   Clear
6:36 AM -13.0 °F -34.3 °F - N/A% 30.09 in 10.0 mi North 12.7 mph - N/A   Clear
6:56 AM -11.2 °F -34.4 °F -27.4 °F 45% 30.08 in 10.0 mi North 16.1 mph - N/A   Clear
7:16 AM -13.0 °F -35.2 °F -25.6 °F 53% 30.09 in 10.0 mi NNW 13.8 mph - N/A   Clear
7:36 AM -14.8 °F -35.6 °F -29.2 °F 48% 30.08 in 10.0 mi North 11.5 mph - N/A   Clear
7:56 AM -16.6 °F -35.7 °F -29.2 °F 53% 30.08 in 10.0 mi North 9.2 mph - N/A   Clear
8:16 AM -9.4 °F -28.9 °F -18.4 °F 65% 30.07 in 10.0 mi NNE 11.5 mph 18.4 mph N/A   Clear
8:36 AM -9.4 °F -30.6 °F -29.2 °F 37% 30.07 in 10.0 mi North 13.8 mph - N/A   Clear
8:56 AM -9.4 °F -31.4 °F -25.6 °F 45% 30.06 in 10.0 mi North 15.0 mph - N/A   Clear
9:16 AM -11.2 °F -32.1 °F -25.6 °F 49% 30.06 in 10.0 mi North 12.7 mph - N/A   Clear
9:36 AM -11.2 °F -30.1 °F -27.4 °F 45% 30.06 in 10.0 mi North 10.4 mph - N/A   Clear
9:56 AM -13.0 °F -33.4 °F -27.4 °F 49% 30.06 in 10.0 mi North 11.5 mph - N/A   Clear
10:16 AM -14.8 °F -34.6 °F - N/A% 30.05 in 10.0 mi North 10.4 mph - N/A   Clear
10:36 AM -11.2 °F -32.1 °F -23.8 °F 54% 30.05 in 10.0 mi North 12.7 mph - N/A   Clear
10:56 AM -9.4 °F -29.8 °F -25.6 °F 45% 30.04 in 10.0 mi North 12.7 mph - N/A   Clear
11:16 AM -9.4 °F -27.9 °F -25.6 °F 45% 30.04 in 10.0 mi North 10.4 mph - N/A   Clear
11:36 AM -9.4 °F -28.9 °F -25.6 °F 45% 30.04 in 10.0 mi North 11.5 mph - N/A   Clear
11:56 AM -7.6 °F -29.1 °F -23.8 °F 45% 30.03 in 10.0 mi North 15.0 mph - N/A   Clear
12:16 PM -4.0 °F -27.6 °F -20.2 °F 46% 30.02 in 10.0 mi North 20.7 mph 25.3 mph N/A   Clear
12:36 PM -2.2 °F -24.1 °F -22.0 °F 39% 30.02 in 10.0 mi NNE 18.4 mph 25.3 mph N/A   Clear
12:56 PM -2.2 °F -23.5 °F -20.2 °F 42% 30.01 in 10.0 mi NNE 17.3 mph 25.3 mph N/A   Clear
1:16 PM -0.4 °F -21.2 °F -20.2 °F 39% 30.01 in 10.0 mi NNE 17.3 mph 23.0 mph N/A   Clear
1:36 PM -0.4 °F -22.3 °F -20.2 °F 39% 30.00 in 10.0 mi NNE 19.6 mph 26.5 mph N/A   Clear
1:56 PM -0.4 °F -22.8 °F -20.2 °F 39% 30.00 in 10.0 mi North 20.7 mph 26.5 mph N/A   Clear
2:16 PM -0.4 °F -20.5 °F -20.2 °F 39% 30.00 in 10.0 mi North 16.1 mph 26.5 mph N/A   Clear
2:36 PM 1.4 °F -18.2 °F -20.2 °F 36% 30.00 in 10.0 mi NNE 16.1 mph 21.9 mph N/A   Clear
2:56 PM 1.4 °F -18.2 °F -18.4 °F 39% 30.00 in 10.0 mi NNE 16.1 mph 20.7 mph N/A   Clear
3:16 PM 1.4 °F -18.2 °F -18.4 °F 39% 29.99 in 10.0 mi North 16.1 mph 20.7 mph N/A   Clear
3:36 PM 1.4 °F -19.9 °F -18.4 °F 39% 29.99 in 10.0 mi North 19.6 mph 23.0 mph N/A   Clear
3:56 PM 1.4 °F -17.6 °F -16.6 °F 43% 29.99 in 10.0 mi North 15.0 mph 23.0 mph N/A   Clear
4:16 PM 3.2 °F -13.9 °F -18.4 °F 36% 29.98 in 10.0 mi NNE 12.7 mph 19.6 mph N/A   Clear
4:36 PM 3.2 °F -17.6 °F -16.6 °F 39% 29.98 in 10.0 mi North 19.6 mph - N/A   Clear
4:56 PM 3.2 °F -15.3 °F -16.6 °F 39% 29.97 in 10.0 mi North 15.0 mph 24.2 mph N/A   Clear
5:16 PM 3.2 °F -18.1 °F -16.6 °F 39% 29.96 in 10.0 mi North 20.7 mph 26.5 mph N/A   Clear
5:36 PM 3.2 °F -17.6 °F -16.6 °F 39% 29.96 in 10.0 mi North 19.6 mph 25.3 mph N/A   Clear
5:56 PM 3.2 °F -13.9 °F -16.6 °F 39% 29.96 in 10.0 mi North 12.7 mph 19.6 mph N/A   Clear
6:16 PM 3.2 °F -15.9 °F -16.6 °F 39% 29.96 in 10.0 mi North 16.1 mph 20.7 mph N/A   Clear
6:36 PM 1.4 °F -16.9 °F -16.6 °F 43% 29.96 in 10.0 mi North 13.8 mph - N/A   Clear
6:56 PM 1.4 °F -17.6 °F -16.6 °F 43% 29.96 in 10.0 mi NW 15.0 mph - N/A   Clear
7:16 PM 1.4 °F -16.1 °F -14.8 °F 47% 29.96 in 10.0 mi NNW 12.7 mph - N/A   Clear
7:36 PM 1.4 °F -16.1 °F -14.8 °F 47% 29.96 in 10.0 mi North 12.7 mph - N/A   Clear
7:56 PM -0.4 °F -17.6 °F -16.6 °F 46% 29.96 in 10.0 mi NNW 11.5 mph - N/A   Clear
8:16 PM -0.4 °F -15.7 °F -18.4 °F 43% 29.96 in 10.0 mi North 9.2 mph - N/A   Clear
8:36 PM -2.2 °F -21.5 °F -16.6 °F 50% 29.95 in 10.0 mi NNW 13.8 mph - N/A   Clear
8:56 PM -2.2 °F -20.7 °F -18.4 °F 46% 29.95 in 10.0 mi NNW 12.7 mph - N/A   Clear
9:16 PM -4.0 °F -23.7 °F -20.2 °F 46% 29.95 in 10.0 mi NNW 13.8 mph - N/A   Clear
9:36 PM -7.6 °F -26.6 °F -22.0 °F 50% 29.95 in 10.0 mi NNW 11.5 mph - N/A   Clear
9:56 PM -5.8 °F -26.0 °F -16.6 °F 60% 29.95 in 10.0 mi NNW 13.8 mph - N/A   Clear
10:16 PM -5.8 °F -25.2 °F -22.0 °F 46% 29.95 in 10.0 mi NNW 12.7 mph - N/A   Clear
10:36 PM -4.0 °F -22.1 °F -16.6 °F 55% 29.95 in 10.0 mi North 11.5 mph - N/A   Clear
10:56 PM -5.8 °F -25.2 °F -23.8 °F 42% 29.94 in 10.0 mi North 12.7 mph - N/A   Clear
11:36 PM -7.6 °F -23.4 °F -23.8 °F 45% 29.94 in 10.0 mi NNW 8.1 mph - N/A   Clear
11:56 PM -9.4 °F -25.6 °F -23.8 °F 49% 29.93 in 10.0 mi NNW 8.1 mph - N/A   Clear